x

9439040 - Astoria, Or (asto3) Weather Station

1:54pm - Mon 20th Nov 2017 All times are PST. -8 hours from GMT.

  • Wind
    8mph, 11mph gusts
  • Sea Temp 50°f
  • Air Temp 50°f
  • Sea Pressure 1012.1mb
  • 9439040 - Astoria, Or
  • 9439040 - Astoria, Or

More Historic Weather Station data

Upgrade to MSW Pro to gain access to the past 30 days of data for over 8000 Wavebouys and Weather Stations around the globe.

Join

Comparision Forecast

View Surf forecast
   
Mon 11/20 1:54pm 8 11 mph 1012.1mb 50f 50f
1:48pm 1 6 mph 1011.9mb 50f 51f
1:42pm 2 3 mph 1011.7mb 50f 51f
1:36pm  -  2 mph 1011.7mb 50f 52f
1:30pm 2 5 mph 1011.7mb 50f 51f
1:24pm 3 6 mph 1011.4mb 50f 51f
1:18pm 2 6 mph 1011.4mb 50f 51f
1:12pm 3 5 mph 1011mb 50f 51f
1:06pm 2 3 mph 1010.8mb 50f 51f
1:00pm 3 6 mph 1011mb 50f 51f
12:54pm 2 3 mph 1010.9mb 50f 51f
12:48pm 1 5 mph 1010.7mb 50f 51f
12:42pm 3 7 mph 1010.7mb 50f 51f
12:36pm 5 8 mph 1010.8mb 50f 51f
12:30pm 2 5 mph 1010.5mb 50f 51f
12:24pm 3 7 mph 1010.3mb 50f 51f
12:18pm 2 7 mph 1010.1mb 50f 51f
12:12pm 2 5 mph 1010.1mb 50f 52f
12:06pm 3 8 mph 1009.9mb 50f 51f
12:00pm 3 7 mph 1009.8mb 50f 51f
11:54am 2 6 mph 1009.6mb 50f 51f
11:48am 1 3 mph 1009.2mb 50f 51f
11:42am 1 3 mph 1009.2mb 50f 52f
11:36am 1 5 mph 1009.1mb 50f 52f
11:30am  -  2 mph 1008.9mb 50f 53f
11:24am 1 3 mph 1008.7mb 50f 52f
11:18am  -  1 mph 1008.6mb 50f 52f
11:12am  -  5 mph 1008.5mb 50f 52f
11:06am 3 7 mph 1008.6mb 50f 50f
11:00am 3 6 mph 1008.4mb 50f 50f
10:54am 1 5 mph 1008.3mb 50f 50f
10:48am 2 6 mph 1008.2mb 50f 50f
10:42am 3 7 mph 1008.1mb 50f 50f
10:36am 5 7 mph 1007.8mb 50f 50f
10:30am 5 6 mph 1007.6mb 50f 50f
10:24am 5 6 mph 1007.3mb 50f 50f
10:18am  -  2 mph 1007.1mb 50f 50f
10:12am  -  2 mph 1006.9mb 50f 50f
10:06am  -  3 mph 1006.8mb 50f 49f
10:00am  -  5 mph 1006.7mb 50f 49f
9:54am 1 6 mph 1006.8mb 50f 49f
9:48am 3 6 mph 1006.5mb 50f 49f
9:42am 3 6 mph 1006.3mb 50f 49f
9:36am 2 5 mph 1006.1mb 50f 49f
9:30am 3 6 mph 1006mb 50f 49f
9:24am 5 6 mph 1005.8mb 50f 49f
9:18am 2 5 mph 1005.5mb 50f 49f
9:12am 3 6 mph 1005.4mb 50f 49f
9:06am 3 5 mph 1005.2mb 50f 49f
9:00am 3 6 mph 1005.2mb 50f 49f
8:54am 2 6 mph 1005mb 50f 49f
8:48am 2 6 mph 1004.9mb 50f 49f
8:42am 2 6 mph 1004.6mb 50f 50f
8:36am 5 7 mph 1004.2mb 50f 49f
8:30am  -  7 mph 1004mb 50f 50f
8:24am 3 8 mph 1003.8mb 50f 49f
8:18am 5 7 mph 1003.7mb 50f 49f
8:12am 3 6 mph 1003.4mb 50f 49f
8:06am 5 6 mph 1003.1mb 50f 49f
8:00am 2 3 mph 1002.9mb 50f 49f
7:54am 2 3 mph 1002.9mb 50f 49f
7:48am 2 5 mph 1002.3mb 50f 49f
7:42am 2 7 mph 1002.4mb 50f 49f
7:36am 1 5 mph 1001.9mb 50f 49f
7:30am 1 6 mph 1001.5mb 50f 49f
7:24am 2 7 mph 1001.4mb 50f 50f
7:18am 7 9 mph 1000.7mb 50f 50f
7:12am 7 11 mph 1000.8mb 50f 50f
7:06am 7 14 mph 1000.6mb 50f 50f
7:00am 10 14 mph 1000.6mb 50f 50f
6:54am 10 21 mph 1000.5mb 50f 50f
6:48am 15 29 mph 1000.4mb 50f 50f
6:42am 26 32 mph 1000.1mb 50f 51f
6:36am 23 26 mph 1000.1mb 50f 51f
6:30am 20 25 mph 999.9mb 50f 51f
6:24am 16 26 mph 999.3mb 50f 52f
6:18am 23 26 mph 999.3mb 50f 52f
6:12am 2 26 mph 999mb 50f 52f
6:06am 16 24 mph 998.8mb 50f 54f
6:00am 16 28 mph 998.7mb 50f 54f
5:54am 21 29 mph 998.4mb 50f 54f
5:48am 16 25 mph 998.5mb 50f 54f
5:42am 15 23 mph 998.6mb 50f 54f
5:36am 17 23 mph 998.5mb 50f 54f
5:30am 18 25 mph 998.4mb 50f 54f
5:24am 15 25 mph 998.5mb 50f 54f
5:18am 18 30 mph 998.5mb 50f 54f
5:12am 17 26 mph 998.6mb 50f 54f
5:06am 18 24 mph 998.5mb 50f 54f
5:00am 18 29 mph 998.6mb 50f 54f
4:54am 17 26 mph 998.5mb 50f 54f
4:48am 17 26 mph 998.7mb 50f 54f
4:42am 14 26 mph 998.8mb 50f 54f
4:36am 17 24 mph 998.9mb 50f 54f
4:30am 21 30 mph 998.7mb 50f 54f
4:24am 17 29 mph 998.9mb 50f 54f
4:18am 17 29 mph 998.7mb 50f 54f
4:12am 17 31 mph 998.9mb 50f 54f
4:06am 20 32 mph 999mb 50f 54f
4:00am 14 28 mph 999mb 50f 53f
3:54am 16 43 mph 999.3mb 50f 54f
3:48am 17 26 mph 999.4mb 50f 54f
3:42am 20 29 mph 999.4mb 50f 53f
3:36am 17 29 mph 999.5mb 50f 54f
3:30am 15 31 mph 999.6mb 50f 53f
3:24am 15 29 mph 999.7mb 50f 53f
3:18am 17 34 mph 999.6mb 50f 53f
3:12am 15 32 mph 999.9mb 50f 53f
3:06am 14 25 mph 1000mb 50f 53f
3:00am 20 31 mph 1000mb 50f 53f
2:54am 21 32 mph 1000.1mb 50f 53f
2:48am 15 29 mph 1000.3mb 50f 53f
2:42am 18 24 mph 1000.4mb 50f 53f
2:36am 18 29 mph 1000.5mb 50f 53f
2:30am 20 26 mph 1000.5mb 50f 53f
2:24am 20 26 mph 1000.6mb 50f 53f
2:18am 17 29 mph 1000.6mb 50f 53f
2:12am 15 30 mph 1000.7mb 50f 53f
2:06am 18 24 mph 1000.8mb 50f 53f
2:00am 24 34 mph 1000.7mb 50f 53f
1:54am 18 32 mph 1000.6mb 50f 53f
1:48am 18 37 mph 1000.5mb 50f 53f
1:42am 18 26 mph 1000.8mb 50f 53f
1:36am 21 29 mph 1000.9mb 50f 53f
1:30am 23 31 mph 1000.8mb 50f 53f
1:24am 21 29 mph 1000.9mb 50f 53f
1:18am 22 28 mph 1001mb 50f 53f
1:12am 20 32 mph 1000.8mb 50f 53f
1:06am 22 33 mph 1001mb 50f 53f
1:00am 21 31 mph 1001.1mb 50f 53f
12:54am 16 31 mph 1001.1mb 50f 53f
12:48am 26 36 mph 1001.2mb 50f 53f
12:42am 26 34 mph 1001.3mb 50f 53f
12:36am 21 28 mph 1001.3mb 50f 53f
12:30am 22 38 mph 1001.3mb 50f 53f
12:24am 22 33 mph 1001.4mb 50f 53f
12:18am 18 30 mph 1001.4mb 50f 53f
12:12am 17 36 mph 1001.4mb 50f 53f
12:06am 16 39 mph 1001.4mb 50f 53f
12:00am 21 41 mph 1001.4mb 50f 53f
Sun 11/19 11:54pm 22 33 mph 1001.4mb 50f 53f
11:48pm 21 34 mph 1001.6mb 50f 52f
11:42pm 26 37 mph 1001.5mb 50f 53f
11:36pm 24 36 mph 1001.7mb 50f 53f
11:30pm 25 37 mph 1001.6mb 50f 53f
11:24pm 24 34 mph 1001.5mb 50f 52f
11:18pm 28 41 mph 1001.7mb 50f 53f
11:12pm 22 38 mph 1001.7mb 50f 53f
11:06pm 20 36 mph 1001.9mb 50f 52f
11:00pm 24 31 mph 1002mb 50f 52f
10:54pm 20 36 mph 1002.1mb 50f 52f
10:48pm 23 31 mph 1002mb 50f 52f
10:42pm 25 40 mph 1002mb 50f 52f
10:36pm 22 37 mph 1001.9mb 50f 51f
10:30pm 25 41 mph 1001.9mb 50f 52f
10:24pm 23 34 mph 1002.1mb 50f 51f
10:18pm 22 36 mph 1002.1mb 50f 51f
10:12pm 23 36 mph 1002mb 50f 51f
10:06pm 28 33 mph 1002mb 50f 51f
10:00pm 23 34 mph 1002.3mb 50f 51f
9:54pm 25 36 mph 1002.3mb 50f 51f
9:48pm 25 34 mph 1002.4mb 50f -
9:42pm 20 36 mph 1002.4mb 50f -
9:36pm 18 39 mph 1002.4mb 50f -
9:30pm 21 30 mph 1002.3mb 50f 52f
9:24pm 21 32 mph 1002.1mb 50f 51f
9:18pm 17 29 mph 1002.1mb 50f 50f
9:12pm 24 33 mph 1001.9mb 50f 51f
9:06pm 25 34 mph 1001.9mb 50f 52f
9:00pm 20 32 mph 1002mb 50f 52f
8:54pm 20 34 mph 1002.1mb 50f 52f
8:48pm 23 31 mph 1002.1mb 50f 52f
8:42pm 18 32 mph 1002.3mb 50f 52f
8:36pm 17 25 mph 1002.5mb 50f 52f
8:30pm 11 25 mph 1002.6mb 50f 51f
8:24pm 6 11 mph 1002.7mb 50f 49f
8:18pm 2 5 mph 1002.9mb 50f 47f
8:12pm 1 10 mph 1003mb 50f 47f
8:06pm 3 9 mph 1003mb 50f 47f
8:00pm 2 15 mph 1003.2mb 50f 47f
7:54pm 10 16 mph 1002.9mb 50f 47f
7:48pm 2 7 mph 1003mb 50f 46f
7:42pm 2 7 mph 1002.9mb 50f 46f
7:36pm 3 10 mph 1003.1mb 50f 46f
7:30pm 6 10 mph 1003mb 50f 46f
7:24pm 9 13 mph 1002.9mb 50f 47f
7:18pm 3 7 mph 1002.8mb 50f 46f
7:12pm 3 9 mph 1002.8mb 50f 46f
7:06pm 6 8 mph 1002.9mb 50f 46f
7:00pm 3 14 mph 1003.1mb 50f 46f
6:54pm 7 13 mph 1002.9mb 50f 46f
6:48pm 7 14 mph 1003.2mb 50f 46f
6:42pm 8 15 mph 1003.3mb 50f 46f
6:36pm 5 9 mph 1003.5mb 50f 46f
6:30pm 6 8 mph 1003.4mb 50f 46f
6:24pm 2 8 mph 1003.2mb 50f 46f
6:18pm 5 11 mph 1003.4mb 50f 46f
6:12pm 5 9 mph 1003.5mb 50f 45f
6:06pm 5 9 mph 1003.9mb 50f 45f
6:00pm 3 8 mph 1004.1mb 50f 46f
5:54pm 2 7 mph 1004.2mb 50f 46f
5:48pm 5 8 mph 1004.4mb 50f 45f
5:42pm 6 9 mph 1004.6mb 50f 45f
5:36pm 5 9 mph 1004.9mb 50f 45f
5:30pm 6 13 mph 1005.2mb 50f 45f
5:24pm 3 8 mph 1005.4mb 50f 45f
5:18pm 5 9 mph 1005.6mb 50f 45f
5:12pm 6 8 mph 1005.7mb 50f 46f
5:06pm 3 6 mph 1005.5mb 50f 47f
5:00pm 3 6 mph 1005.6mb 50f 47f
4:48pm 3 6 mph 1006mb 50f 48f
4:42pm 6 9 mph 1006.1mb 50f 48f
4:36pm 6 9 mph 1006mb 50f 49f
4:30pm 7 13 mph 1006mb 50f 49f
4:24pm 8 14 mph 1005.8mb 50f 49f
4:18pm 6 13 mph 1005.9mb 50f 49f
4:12pm 9 13 mph 1005.8mb 50f 49f
4:06pm 9 14 mph 1005.9mb 50f 49f
4:00pm 8 14 mph 1006mb 50f 49f
3:54pm 10 15 mph 1006mb 50f 50f
3:48pm 9 15 mph 1006.2mb 50f 50f
3:42pm 10 17 mph 1006mb 50f 51f
3:36pm 11 18 mph 1006mb 50f 51f
3:30pm 11 20 mph 1006.2mb 50f 51f
3:24pm 10 16 mph 1006.3mb 50f 51f
3:18pm 7 14 mph 1006.7mb 50f 51f
3:12pm 6 9 mph 1006.8mb 50f 51f
3:06pm 8 10 mph 1007mb 50f 51f
3:00pm 6 13 mph 1007mb 50f 51f
2:54pm 6 8 mph 1007.2mb 50f 51f
2:48pm 7 10 mph 1007.5mb 50f 51f
2:42pm 9 14 mph 1007.6mb 50f 51f
2:36pm 5 6 mph 1007.7mb 50f 50f
2:30pm 3 3 mph 1007.9mb 50f 49f
2:24pm  -  2 mph 1008.1mb 50f 48f
2:18pm 1 3 mph 1008.1mb 50f 48f
2:12pm  -  2 mph 1008.1mb 50f 47f
2:06pm  -  5 mph 1008.2mb 50f 47f
2:00pm 3 6 mph 1008.3mb 50f 48f
1:54pm 6 9 mph 1008.6mb 50f 48f
1:48pm 2 7 mph 1008.9mb 50f 47f
1:42pm 6 9 mph 1009.1mb 50f 47f
1:36pm 6 11 mph 1009.1mb 50f 46f
1:30pm 7 9 mph 1009.3mb 50f 46f
1:24pm 5 9 mph 1009.5mb 50f 46f
1:18pm 5 13 mph 1009.7mb 50f 46f
1:12pm 8 14 mph 1009.8mb 50f 46f
1:06pm 5 13 mph 1010mb 50f 46f
1:00pm 3 8 mph 1010mb 50f 46f
12:54pm 6 11 mph 1010mb 50f 46f
12:48pm 6 11 mph 1010mb 50f 46f
12:42pm 6 14 mph 1010.1mb 50f 46f
12:36pm 6 13 mph 1010.4mb 50f 46f
12:30pm 7 13 mph 1010.6mb 50f 46f
12:24pm 5 10 mph 1010.6mb 50f 46f
12:18pm 5 15 mph 1010.7mb 50f 46f
12:12pm 6 14 mph 1010.7mb 50f 45f
12:06pm 6 8 mph 1010.8mb 50f 45f
12:00pm 1 6 mph 1010.8mb 50f 45f
11:54am 2 9 mph 1010.9mb 50f 45f
11:48am 6 11 mph 1011.3mb 50f 45f
11:42am 8 15 mph 1011.3mb 50f 45f
11:36am 5 13 mph 1011.3mb 50f 45f
11:30am 9 13 mph 1011.5mb 50f 44f
11:24am 8 14 mph 1011.9mb 50f 45f
11:18am 7 15 mph 1012.2mb 50f 45f
11:12am 8 11 mph 1012.4mb 50f 45f
11:06am 2 8 mph 1012.6mb 50f 45f
11:00am 5 10 mph 1012.6mb 50f 45f
10:54am 3 11 mph 1012.8mb 50f 45f
10:48am 6 13 mph 1013mb 50f 45f
10:42am 5 8 mph 1013.1mb 50f 44f
10:36am 2 7 mph 1013.2mb 50f 45f
10:30am 3 10 mph 1013.2mb 50f 45f
10:24am 3 11 mph 1013.2mb 50f 45f
10:18am 6 7 mph 1013.4mb 50f 44f
10:12am 5 8 mph 1013.5mb 50f 44f
10:06am 3 9 mph 1013.8mb 50f 43f
10:00am 8 10 mph 1013.8mb 50f 43f
9:54am 5 11 mph 1013.9mb 50f 43f
9:48am 8 13 mph 1013.9mb 50f 43f
9:42am 3 11 mph 1013.8mb 50f 43f
9:36am 7 13 mph 1014mb 50f 43f
9:30am 9 14 mph 1014mb 50f 43f
9:24am 5 11 mph 1014mb 50f 43f
9:18am 6 10 mph 1014.2mb 50f 43f
9:12am 6 11 mph 1014.2mb 50f 43f
9:06am 7 9 mph 1014.3mb 50f 44f
9:00am 2 5 mph 1014.4mb 50f 43f
8:54am 2 9 mph 1014.6mb 50f 43f
8:48am 5 7 mph 1014.8mb 50f 43f
8:42am 3 10 mph 1014.8mb 50f 43f
8:36am 3 7 mph 1014.8mb 50f 43f
8:30am 3 9 mph 1014.7mb 50f 43f
8:24am 6 15 mph 1014.7mb 50f 43f
8:18am 6 10 mph 1014.8mb 50f 43f
8:12am 6 11 mph 1014.9mb 50f 43f
8:06am 3 9 mph 1014.8mb 50f 43f
8:00am 3 8 mph 1014.7mb 50f 43f
7:54am 5 11 mph 1014.8mb 50f 43f
7:48am 3 8 mph 1015mb 50f 43f
7:42am 3 8 mph 1015.1mb 50f 43f
7:36am 5 8 mph 1015.4mb 50f 43f
7:30am 2 10 mph 1015.4mb 50f 43f
7:24am 7 10 mph 1015.5mb 50f 43f
7:18am 7 11 mph 1015.6mb 50f 43f
7:12am 8 13 mph 1015.7mb 50f 42f
7:06am 8 11 mph 1015.7mb 50f 42f
7:00am 5 11 mph 1015.8mb 50f 42f
6:54am 7 13 mph 1015.8mb 50f 42f
6:48am 6 11 mph 1016mb 50f 42f
5:54am 6 10 mph 1016.4mb 50f 42f
5:48am 9 13 mph 1016.3mb 50f 42f
Fri 11/17 10:30am 6 7 mph 1019.8mb 50f 44f
10:24am 7 8 mph 1019.7mb 50f 44f
10:18am 5 7 mph 1019.6mb 50f 44f
10:12am 5 6 mph 1019.5mb 50f 44f
10:06am 3 6 mph 1019.4mb 50f 44f
10:00am 5 6 mph 1019.4mb 50f 44f
9:54am 2 5 mph 1019.2mb 50f 44f
9:48am 3 6 mph 1019.1mb 50f 43f
9:42am 5 5 mph 1018.9mb 50f 44f
9:36am 3 6 mph 1018.8mb 50f 44f
9:30am 6 7 mph 1018.7mb 50f 43f
9:24am 3 5 mph 1018.6mb 50f 43f
9:18am 2 5 mph 1018.5mb 50f 43f
9:12am 2 3 mph 1018.4mb 50f 43f
9:06am 2 5 mph 1018.1mb 50f 43f
9:00am 2 5 mph 1018mb 50f 43f
8:54am 5 6 mph 1017.9mb 50f 43f
8:48am 3 5 mph 1017.8mb 50f 43f
8:42am 3 6 mph 1017.7mb 50f 43f
8:36am 5 6 mph 1017.7mb 50f 42f
8:30am 3 7 mph 1017.6mb 50f 43f
8:24am 6 7 mph 1017.3mb 50f 42f
8:18am 7 8 mph 1017.2mb 50f 42f
8:12am 5 6 mph 1017mb 50f 42f
8:06am 5 6 mph 1016.9mb 50f 42f
8:00am 5 6 mph 1016.8mb 50f 42f
7:54am 5 6 mph 1016.7mb 50f 42f
7:48am 5 6 mph 1016.5mb 50f 42f
7:42am 5 6 mph 1016.5mb 50f 43f
7:36am 3 3 mph 1016.4mb 50f 42f
7:30am 2 3 mph 1016.3mb 50f 42f
7:24am 5 6 mph 1016.3mb 50f 42f
7:18am 2 5 mph 1016.2mb 50f 42f
7:12am 3 5 mph 1016.1mb 50f 42f
7:06am 3 5 mph 1015.9mb 50f 42f
7:00am 3 6 mph 1015.7mb 50f 42f
6:54am 5 8 mph 1015.4mb 50f 43f
6:48am 6 8 mph 1015.3mb 50f 42f
6:42am 5 7 mph 1015.2mb 50f 42f
6:36am 5 6 mph 1015.1mb 50f 42f
6:30am 3 5 mph 1015.1mb 50f 43f
6:24am 3 5 mph 1015mb 50f 43f
6:18am 5 6 mph 1014.9mb 50f 43f
6:12am 3 3 mph 1014.9mb 50f 43f
6:06am 3 5 mph 1014.8mb 50f 43f
6:00am 2 9 mph 1014.7mb 50f 45f
5:54am 9 10 mph 1014.7mb 50f 45f
5:48am 7 9 mph 1014.7mb 50f 45f
5:42am 3 6 mph 1014.6mb 50f 45f
5:36am 6 10 mph 1014.2mb 50f 45f
5:30am  -  3 mph 1014mb 50f 44f
5:24am 3 5 mph 1013.9mb 50f 44f
5:18am 3 5 mph 1013.8mb 50f 44f
5:12am 2 5 mph 1013.7mb 50f 44f
5:06am 3 5 mph 1013.6mb 50f 44f
5:00am 3 6 mph 1013.6mb 50f 43f
4:54am 3 5 mph 1013.5mb 50f 43f
4:48am 3 6 mph 1013.4mb 50f 43f
4:42am 2 5 mph 1013.4mb 50f 44f
4:36am 2 3 mph 1013.5mb 50f 44f
4:30am 2 5 mph 1013mb 50f 44f
4:24am 3 6 mph 1012.9mb 50f 43f
4:18am 5 8 mph 1012.8mb 50f 44f
4:12am 3 6 mph 1013mb 50f 43f
4:06am 3 5 mph 1012.9mb 50f 43f
4:00am 2 3 mph 1012.7mb 50f 43f
3:54am 2 5 mph 1012.7mb 50f 43f
3:48am 5 6 mph 1012.6mb 50f 43f
3:42am 1 5 mph 1012.5mb 50f 43f
3:36am 2 3 mph 1012.4mb 50f 43f
3:30am 3 3 mph 1012.4mb 50f 42f
3:24am 2 3 mph 1012.3mb 50f 42f
3:18am 2 3 mph 1012.2mb 50f 42f
3:12am 2 3 mph 1012.2mb 50f 42f
3:06am  -  2 mph 1012.1mb 50f 43f
3:00am  -  2 mph 1012mb 50f 43f
2:54am  -  2 mph 1011.9mb 50f 43f
2:48am  -  3 mph 1011.7mb 50f 42f
2:42am 1 3 mph 1011.6mb 50f 43f
2:36am 2 2 mph 1011.5mb 50f 42f
2:30am 2 3 mph 1011.5mb 50f 42f
2:24am 3 3 mph 1011.3mb 50f 43f
2:18am 2 3 mph 1011.1mb 50f 42f
2:12am 3 5 mph 1011mb 50f 42f
2:06am 3 3 mph 1010.9mb 50f 42f
2:00am 3 7 mph 1010.8mb 50f 42f
1:54am 6 7 mph 1010.6mb 50f 43f
1:48am 5 7 mph 1010.5mb 50f 42f
1:42am 6 7 mph 1010.6mb 50f 42f
1:36am 7 8 mph 1010.5mb 50f 42f
1:30am 3 6 mph 1010.4mb 50f 43f
1:24am 3 5 mph 1010.4mb 50f 43f
1:18am 1 3 mph 1010.3mb 50f 43f
1:12am 3 7 mph 1010.3mb 50f 43f
1:06am 2 5 mph 1010mb 50f 43f
1:00am 3 6 mph 1009.9mb 50f 43f
12:54am 2 3 mph 1009.9mb 50f 42f
12:48am 2 7 mph 1009.7mb 50f 42f
12:42am 5 8 mph 1009.4mb 50f 42f
12:36am 5 7 mph 1009.3mb 50f 42f
12:30am 6 10 mph 1009.2mb 50f 43f
12:24am 3 10 mph 1009.2mb 50f 42f
12:18am 6 8 mph 1009.3mb 50f 43f
12:12am 6 9 mph 1009.2mb 50f 43f
12:06am 7 9 mph 1009.2mb 50f 43f
12:00am 7 11 mph 1009.2mb 50f 43f
Thu 11/16 11:54pm 9 11 mph 1009.1mb 50f 43f
11:48pm 6 8 mph 1008.9mb 50f 43f
11:42pm 6 8 mph 1008.8mb 50f 43f
11:36pm 6 9 mph 1008.7mb 50f 43f
11:30pm 7 11 mph 1008.5mb 50f 43f
11:24pm 5 6 mph 1008.5mb 50f 43f
11:18pm 3 5 mph 1008.5mb 50f 43f
11:12pm 1 6 mph 1008.5mb 50f 43f
11:06pm 6 8 mph 1008.3mb 50f 43f
11:00pm 5 8 mph 1008.2mb 50f 43f
10:54pm 6 7 mph 1008.2mb 50f 43f